Regional Weather Roundup
Issued by NWS Newport/Morehead, NC

Home | Current Version | Previous Version | Text Only | Print | Product List | Glossary On
Versions: 1 2 3 4 5 6 7 8 9 10 11 12 13 14 15 16 17 18 19 20 21 22 23 24 25 26 27 28 29 30 31 32 33 34 35 36 37 38 39 40 41 42 43 44 45 46 47 48 49 50
000
ASUS42 KMHX 241813
RWRMHX
WEATHER ROUNDUP FOR EASTERN NORTH CAROLINA
NATIONAL WEATHER SERVICE NEWPORT/MOREHEAD CITY NC
200 PM EDT FRI MAR 24 2017

NOTE: "FAIR" INDICATES FEW OR NO CLOUDS BELOW 12,000 FEET
WITH NO SIGNIFICANT WEATHER AND/OR OBSTRUCTIONS TO VISIBILITY

NCZ015>017-031-032-045>047-102-103-241900-
NORTH COAST

CITY           SKY/WX    TMP DP  RH WIND       PRES   REMARKS
EDENTON        NOT AVBL
ELIZABETH CITY SUNNY     65  40  39 SW17G28   30.44F
KITTY HAWK     NOT AVBL
MANTEO         SUNNY     63  44  48 SW15      30.45F

$$

NCZ045>047-081-094-103-104-241900-
CENTRAL COAST

CITY           SKY/WX    TMP DP  RH WIND       PRES   REMARKS
FRISCO         SUNNY     66  49  54 VRB7      30.49F

$$

NCZ095-097-098-100-101-241900-
SOUTHERN COAST

CITY           SKY/WX    TMP DP  RH WIND       PRES   REMARKS
BEAUFORT       SUNNY     68  48  48 SW13      30.49F
CEDAR ISLAND   NOT AVBL
JACKSONVILLE   MOSUNNY   70  47  43 S13G21    30.46
PINEY ISLAND   CLEAR    N/A N/A N/A SW9G23    30.47F
WILMINGTON     MOSUNNY   69  47  45 S10G20    30.47F


$$

NCZ011>013-027>030-043-044-078>080-089-090>093-098-241900-
COASTAL PLAIN

CITY           SKY/WX    TMP DP  RH WIND       PRES   REMARKS
AHOSKIE        NOT AVBL
CLINTON        MOSUNNY   70  46  41 S8        30.46F
ELIZABETHTOWN  SUNNY     70  42  36 S8        30.45F
GOLDSBORO      MOSUNNY   70  42  37 SW15      30.43F
GREENVILLE     MOSUNNY   70  43  37 SW10G23   30.44F
HAVELOCK       PTSUNNY   69  47  45 S12G23    30.48F
KENANSVILLE    MOSUNNY   72  43  35 SW13G18   30.46F
KINSTON        MOSUNNY   70  41  35 SW12G21   30.46F
NEW BERN       MOSUNNY   71  45  39 W12G22    30.47F
RICHLANDS      MOSUNNY   72  44  36 S13       30.46F
ROCKY MOUNT    SUNNY     68  46  45 SW12G26   30.43F
WASHINGTON     SUNNY     68  44  41 SW12G21   30.45F
WHITEVILLE     MOSUNNY   71  44  37 S7        30.45F

$$

AMZ130-135-150-152-154-156-158-170-250-252-270-ANZ085-086-088-633-658-670-241900-
MARINE OBSERVATIONS

STATION/POSITION TIME  TEMP    WIND        PRES    WAVE   SWELL
                       AIR SEA DIR/SP/G            HT/PER HT/PER
                 (UTC) (F)     (DEG/KT/KT) (MB)    (FT/S) (FT/S)
CHESAPEAKE LIGHT NOT AVBL
64 E VA BEACH    1750   53 51  190/ 10/ 14 1031.3    3/10   3/10
DUCK             1742   59 48  240/  7/  9 1031.0
2 E DUCK         1800      51                N/A     3/10
OREGON INLET     1742   56 49  180/ 13/ 14 1032.2
13E OREGON INLT  NOT AVBL
HATTERAS CG      1742   63 53  210/  6/  9 1032.4
DIAMOND BUOY     1750   64 75  210/ 14/ 17 1032.9    4/10   3/10
CAPE LOOKOUT     1800   65     190/ 11/ 14 1032.1
BEAUFORT LAB     1742   64 51  200/  8/ 11 1031.7
30 SE NEW RVR IN 1708   65     170/  8/ 12 1033.2
30 SE NEW RVR IN 1743      69                N/A     3/ 8
27 SE WRIGHTSVLE 1708   64 62  160/  8/ 10 1032.4
5 SE WRIGHTSVLE  1708   57 56   70/  4/  8 1032.8
225 S CAPE HAT   1750   63 73   60/ 12/ 16 1032.8    5/11   5/11
41 SE CHARLESTON 1750   69 71  140/ 12/ 16 1030.9    5/ 8   3/ 8

$$




USA.gov is the U.S. government's official web portal to all federal, state and local government web resources and services.